THOR ABLESTAR DEB, 1504

Orbit data source: Space-Track

THOR ABLESTAR DEB, 1504 is space debris in LEO originally from a launch on Fri, 13 Aug 1965 UTC launched from the Air Force Western Test Range (AFWTR). Debris objects in space refer to the collection of defunct objects orbiting the Earth. Examples of debris include non-operational satellites, rocket bodies, and fragments generated from explosions, collisions, or faulty payload assembly.

Loading next visibility...
Identifier
1504, 1965-065A
Orbit
LEO
Country
Flag of USUS
Related business
Manufacturer
NRL
Mission
Spacecraft
Bus & Motor
Unknown
Mass
Unknown
Launch date (UTC)
1965-08-13 (61 years ago)
Launch vehicle
Unknown
Launch site
Air Force Western Test Range (AFWTR)
Object type
Payload
Rocket body
Debris
Shape & HBR
Unknown shape, 0.1 m
Radar Cross Section
Medium (>0.1 m² and <1 m²)

Expand to show TLE details & history
Last TLE update: 1 day ago

TLE from 1 day ago
0 THOR ABLESTAR DEB
1  1504U 65065A   26237.26341611  .00000174  00000-0  29705-3 0  9994
2  1504  89.9626 241.4148 0066800  23.5236 349.8840 13.40426057976962
Epoch: 2026-08-25T06:19Z
TLE epoch observation values (Epoch: 2026-08-25T06:19:19.151Z)
Latitude
13.23593°
Longitude
173.06048°
Altitude
1,060.662 km
Speed
7.347 km/s
True Right ascension
16h 05m 41s
True Declination
13° 09' 45"
Sunlit
Object was in daylight at epoch
Visualization orbit readout
Latitude
Unknown
Longitude
Unknown
Altitude
Unknown
Speed
Unknown
Apparent Right ascension
Unknown
Apparent Declination
Unknown
Sunlit
N/A
Visualization observer readout
Local Sidereal Time
23:17:47
Azimuth
Unknown
Elevation
Unknown
Doppler factor
Unknown
Orbital elements
Apogee altitude
1,154.742 km
Perigee altitude
1,054.77 km
Semi-major axis
7,482.893 km
Eccentricity
0.00668
Inclination
89.9626°
RAAN
241.4148°
Arg. of periapsis
23.5236°
True anomaly
349.74844°
Mean anomaly
349.884°
Eccentric anomaly
349.81633°
Mean motion
3.35304 °/min
Orbital period
107.37 mins
BSTAR
0.00029705
Loading maneuver chart data...
Computing Atmospheric mass density...
Loading historical data...
Loading historical data...
Loading historical data...
Loading historical data...
Loading historical data...
Loading historical data...
Loading historical data...

Documentation

Showing up to 5 results
|